Overview Statistics Trail Chart Weather Telemetry Raw packets
 

This is the latest recevied weather packets stored in our database for station/object KQ7A. If no packets are shown the sender has not sent any weather packets the latest 10 day(s).

<< 88 89 90 91 92 93 94 >>
Time Temp. Humidity Pressure Rain* Wind** Luminosity Snow
1788032219 25.56° C 29% 1019.8 hPa 0 mm - 787 W/m² -
1788031915 25.56° C 28% 1019.9 hPa 0 mm - 777 W/m² -
1788031615 25° C 27% 1019.8 hPa 0 mm - 791 W/m² -
1788031310 25.56° C 29% 1019.6 hPa 0 mm - 792 W/m² -
1788031008 26.11° C 25% 1019.9 hPa 0 mm - 812 W/m² -
1788030703 25.56° C 26% 1020 hPa 0 mm - 799 W/m² -
1788030398 26.67° C 28% 1020.3 hPa 0 mm - 820 W/m² -
1788030094 25.56° C 31% 1019.8 hPa 0 mm - 820 W/m² -
1788029793 26.67° C 26% 1020.3 hPa 0 mm - 840 W/m² -
1788029488 26.11° C 28% 1020.4 hPa 0 mm - 847 W/m² -
1788029187 26.11° C 28% 1020 hPa 0 mm - 871 W/m² -
1788028881 25.56° C 28% 1020.1 hPa 0 mm - 867 W/m² -
1788028576 25.56° C 30% 1020.3 hPa 0 mm - 894 W/m² -
1788028271 25.56° C 31% 1020 hPa 0 mm - 882 W/m² -
1788027967 25.56° C 33% 1020 hPa 0 mm - 882 W/m² -
1788027661 25.56° C 30% 1020.1 hPa 0 mm - 900 W/m² -
1788027355 25.56° C 33% 1019.9 hPa 0 mm - 882 W/m² -
1788027049 25.56° C 35% 1019.9 hPa 0 mm - 875 W/m² -
1788026743 25° C 43% 1020 hPa 0 mm - 878 W/m² -
1788026440 24.44° C 47% 1019.9 hPa 0 mm - 881 W/m² -
1788026134 24.44° C 45% 1020.3 hPa 0 mm - 860 W/m² -
1788025832 23.89° C 47% 1020 hPa 0 mm - 831 W/m² -
1788025527 23.33° C 51% 1019.9 hPa 0 mm - 832 W/m² -
1788025222 22.78° C 53% 1020.3 hPa 0 mm - 809 W/m² -
1788024916 22.78° C 56% 1020.3 hPa 0 mm - 794 W/m² -

* Rain latest hour (hover to see other rain measurements)
** Current wind speed in m/s (hover to see current wind gust speed)